| time (UTC) | temp F | wind direction | speed MPH | gust MPH | rain 1hr in | rain 24hr in | rain mn in | humidity % | barometer mb |
| 20260502231539 | 59 | 81 | 2.0 | 8.0 | 0.00 | 0.00 | 0.00 | 46 | 1021.4 |
| 20260502230038 | 60 | 135 | 5.0 | 7.0 | 0.00 | 0.00 | 0.00 | 45 | 1021.4 |
| 20260502224537 | 61 | 144 | 4.0 | 6.0 | 0.00 | 0.00 | 0.00 | 45 | 1021.5 |
| 20260502223044 | 60 | 123 | 2.0 | 3.0 | 0.00 | 0.00 | 0.00 | 45 | 1021.7 |
| 20260502221541 | 61 | 121 | 1.0 | 6.0 | 0.00 | 0.00 | 0.00 | 45 | 1021.8 |
| 20260502220048 | 61 | 152 | 3.0 | 5.0 | 0.00 | 0.00 | 0.00 | 44 | 1021.8 |
| 20260502214539 | 61 | 105 | 2.0 | 4.0 | 0.00 | 0.00 | 0.00 | 45 | 1021.7 |
| 20260502213041 | 61 | 105 | 2.0 | 3.0 | 0.00 | 0.00 | 0.00 | 45 | 1021.7 |
| 20260502211544 | 61 | 105 | 2.0 | 4.0 | 0.00 | 0.00 | 0.00 | 46 | 1021.9 |
| 20260502210046 | 61 | 107 | 2.0 | 4.0 | 0.00 | 0.00 | 0.00 | 46 | 1021.9 |
| 20260502204542 | 61 | 97 | 3.0 | 4.0 | 0.00 | 0.00 | 0.00 | 47 | 1021.9 |
| 20260502203048 | 60 | 112 | 1.0 | 6.0 | 0.00 | 0.00 | 0.00 | 48 | 1022.0 |
| 20260502201545 | 60 | 129 | 2.0 | 6.0 | 0.00 | 0.00 | 0.00 | 48 | 1022.1 |
| 20260502200104 | 60 | 132 | 4.0 | 7.0 | 0.00 | 0.00 | 0.00 | 49 | 1022.1 |
| 20260502194543 | 60 | 136 | 5.0 | 7.0 | 0.00 | 0.00 | 0.00 | 48 | 1022.0 |
| 20260502193043 | 61 | 123 | 4.0 | 7.0 | 0.00 | 0.00 | 0.00 | 48 | 1021.9 |
| 20260502191544 | 60 | 129 | 2.0 | 6.0 | 0.00 | 0.00 | 0.00 | 49 | 1021.9 |
| 20260502190050 | 61 | 148 | 3.0 | 6.0 | 0.00 | 0.00 | 0.00 | 50 | 1021.8 |
| 20260502184545 | 61 | 147 | 2.0 | 5.0 | 0.00 | 0.00 | 0.00 | 48 | 1021.7 |
| 20260502183048 | 61 | 177 | 1.0 | 5.0 | 0.00 | 0.00 | 0.00 | 49 | 1021.6 |
| 20260502181543 | 62 | 144 | 3.0 | 6.0 | 0.00 | 0.00 | 0.00 | 50 | 1021.6 |
| 20260502163048 | 67 | 235 | 6.0 | 12.0 | 0.00 | 0.00 | 0.00 | 44 | 1021.7 |
| 20260502161539 | 68 | 220 | 5.0 | 11.0 | 0.00 | 0.00 | 0.00 | 43 | 1021.8 |
| 20260502151600 | 69 | 240 | 8.0 | 13.0 | 0.00 | 0.00 | 0.00 | 42 | 1022.2 |
| 20260502123042 | 69 | 247 | 8.0 | 18.0 | 0.00 | 0.00 | 0.00 | 41 | 1023.8 |
| 20260502121543 | 70 | 245 | 8.0 | 14.0 | 0.00 | 0.00 | 0.00 | 42 | 1024.0 |
| 20260502114545 | 69 | 229 | 8.0 | 16.0 | 0.00 | 0.00 | 0.00 | 41 | 1024.2 |
| 20260502113050 | 69 | 254 | 9.0 | 17.0 | 0.00 | 0.00 | 0.00 | 42 | 1024.3 |
| 20260502111548 | 69 | 233 | 9.0 | 16.0 | 0.00 | 0.00 | 0.00 | 42 | 1024.5 |
| 20260502110049 | 69 | 220 | 8.0 | 17.0 | 0.00 | 0.00 | 0.00 | 44 | 1024.6 |
| 20260502104544 | 68 | 291 | 8.0 | 15.0 | 0.00 | 0.00 | 0.00 | 45 | 1024.8 |
| 20260502103039 | 67 | 247 | 9.0 | 16.0 | 0.00 | 0.00 | 0.00 | 44 | 1024.9 |
| 20260502101538 | 67 | 294 | 7.0 | 14.0 | 0.00 | 0.00 | 0.00 | 43 | 1025.1 |
| 20260502090106 | 65 | 251 | 7.0 | 12.0 | 0.00 | 0.00 | 0.00 | 44 | 1025.7 |
| 20260502070100 | 63 | 160 | 1.0 | 5.0 | 0.00 | 0.00 | 0.00 | 45 | 1026.1 |
| 20260502064558 | 62 | 171 | 2.0 | 5.0 | 0.00 | 0.00 | 0.00 | 45 | 1026.2 |
| 20260502063050 | 63 | 143 | 2.0 | 5.0 | 0.00 | 0.00 | 0.00 | 46 | 1026.3 |
| 20260502061539 | 62 | 79 | 0.0 | 3.0 | 0.00 | 0.00 | 0.00 | 46 | 1026.3 |
| 20260502060038 | 60 | 0 | 0.0 | 3.0 | 0.00 | 0.00 | 0.00 | 46 | 1026.3 |
| 20260502054548 | 57 | 79 | 2.0 | 7.0 | 0.00 | 0.00 | 0.00 | 52 | 1026.3 |
| 20260502053044 | 57 | 40 | 3.0 | 6.0 | 0.00 | 0.00 | 0.00 | 53 | 1026.3 |
| 20260502051545 | 55 | 330 | 2.0 | 5.0 | 0.00 | 0.00 | 0.00 | 53 | 1026.3 |
| 20260502050043 | 55 | 330 | 4.0 | 7.0 | 0.00 | 0.00 | 0.00 | 52 | 1026.4 |
| 20260502044539 | 53 | 116 | 3.0 | 8.0 | 0.00 | 0.00 | 0.00 | 54 | 1026.2 |
| 20260502043039 | 53 | 330 | 6.0 | 8.0 | 0.00 | 0.00 | 0.00 | 53 | 1026.2 |
| 20260502041548 | 52 | 83 | 7.0 | 10.0 | 0.00 | 0.00 | 0.00 | 55 | 1026.2 |
| 20260502040045 | 53 | 330 | 4.0 | 7.0 | 0.00 | 0.00 | 0.00 | 53 | 1026.2 |
| 20260502034544 | 54 | 330 | 4.0 | 8.0 | 0.00 | 0.00 | 0.00 | 52 | 1026.2 |
| 20260502033044 | 54 | 104 | 3.0 | 8.0 | 0.00 | 0.00 | 0.00 | 51 | 1026.2 |
| 20260502031541 | 55 | 96 | 6.0 | 9.0 | 0.00 | 0.00 | 0.00 | 49 | 1026.1 |
| 20260502030040 | 56 | 330 | 3.0 | 4.0 | 0.00 | 0.00 | 0.00 | 47 | 1026.3 |
| 20260502024546 | 57 | 330 | 2.0 | 4.0 | 0.00 | 0.00 | 0.00 | 45 | 1026.2 |
| 20260502023102 | 57 | 330 | 2.0 | 3.0 | 0.00 | 0.00 | 0.00 | 45 | 1026.4 |
| 20260502021540 | 58 | 330 | 2.0 | 4.0 | 0.00 | 0.00 | 0.00 | 45 | 1026.3 |
| 20260502020038 | 58 | 330 | 1.0 | 3.0 | 0.00 | 0.00 | 0.00 | 44 | 1026.2 |
| 20260502014545 | 57 | 330 | 2.0 | 4.0 | 0.00 | 0.00 | 0.00 | 44 | 1026.4 |
| 20260502013044 | 58 | 330 | 2.0 | 3.0 | 0.00 | 0.00 | 0.00 | 44 | 1026.5 |
| 20260502011544 | 58 | 330 | 2.0 | 3.0 | 0.00 | 0.00 | 0.00 | 44 | 1026.5 |
| 20260502010041 | 58 | 330 | 2.0 | 3.0 | 0.00 | 0.00 | 0.00 | 44 | 1026.6 |
| 20260502004541 | 58 | 330 | 1.0 | 3.0 | 0.00 | 0.00 | 0.00 | 44 | 1026.7 |
| 20260502003046 | 58 | 330 | 2.0 | 3.0 | 0.00 | 0.00 | 0.00 | 44 | 1026.7 |
| 20260502001556 | 58 | 330 | 3.0 | 4.0 | 0.00 | 0.00 | 0.00 | 44 | 1026.8 |
| 20260501234543 | 58 | 330 | 1.0 | 3.0 | 0.00 | 0.00 | 0.00 | 44 | 1026.9 |
| 20260501233040 | 58 | 0 | 0.0 | 4.0 | 0.00 | 0.00 | 0.00 | 44 | 1027.0 |